Kosmos-1703

operational
NORAD ID: 16262 Int'l Des: 1985-108 Owner: GRU Country: SU
LEOCIRCULARPOLAR

About Kosmos-1703

Description loading...

Live Position

Loading 3D Globe...

Upcoming Passes

Altitude History

Altitude vs Time

uPlot chart will show altitude changes over time

Two-Line Element Set

1 16262U 85108A 26018.94648665 .00020733 00000-0 40086-3 0 9990
2 16262 82.4592 13.5723 0006540 149.6959 210.4670 15.47604160194321
Epoch: Jan 18, 2026 • Age: 12 hours

Current Status

Altitude 435.7 km
Velocity 7.65 km/s
Sub-Earth Point -19.70°S, 85.81°E
Launch Date Nov 22, 1985
Age 40.1 years
Type other

Technical Details

Classification Payload
Mass 1750.00 kg
Dry Mass 1750.00 kg
Total Mass 1750.00 kg
Length 3.20 m
Diameter 1.30 m
Span 13.10 m
Shape Cyl + Ant
Manufacturer YUZH
Bus Type Tselina-D
Phase Status In Orbit
Owner/State GRU/SU

Large Constellations

Loading constellations...